Location: Unspecified
(48.2082°N, 0.0000°E)
Time: 19:02:40
(UTC+00:00)

Tiros 1 despin weight - Pass Details

Date: 25 June 2019
Orbit: 594 x 642 km, 48.2° (Epoch: 16 July)

Event Time Altitude Azimuth Distance (km) Brightness Sun altitude
Rises 03:56:01 0° 283° (WNW) 2,833 ? -1.4°
Reaches altitude 10° 03:58:35 10° 271° (W) 1,927 ? -1.1°
Maximum altitude 04:02:13 26° 215° (SW) 1,190 ? -0.6°
Drops below altitude 10° 04:05:52 10° 159° (SSE) 1,923 ? -0.1°
Sets 04:08:26 0° 146° (SSE) 2,826 ? 0.2°
